Location: Newark
(37.9000°S, 166.5167°W)
Time: 00:13:17
(UTC+00:00)

Envisat - Visible Passes

Search period start: 20 January 2020 00:00
Search period end: 30 January 2020 00:00
Orbit: 764 x 766 km, 98.1° (Epoch: 19 January)

Date Brightness Start Highest point End Pass type
(mag) Time Alt. Az. Time Alt. Az. Time Alt. Az.
20 Jan 5.8 06:50:49 10° SSW 06:54:55 25° WSW 06:58:59 10° WNW visible
22 Jan 6.3 07:17:26 10° SSW 07:20:06 14° WSW 07:22:45 10° W visible
24 Jan 6.4 15:38:24 10° E 15:41:12 15° ESE 15:44:01 10° SSE visible
25 Jan 6.1 07:05:33 10° SSW 07:08:56 18° WSW 07:12:19 10° WNW visible
27 Jan 6.8 07:33:40 10° SW 07:34:03 10° WSW 07:34:27 10° WSW visible
27 Jan 6.7 15:28:19 10° E 15:30:04 12° ESE 15:31:50 10° SE visible
28 Jan 5.9 06:53:51 10° SSW 06:57:47 23° WSW 07:01:41 10° WNW visible
